YO8RBY-13 Weather Reports


time (UTC)temp
F
wind
direction
speed
knots
gust
knots
rain 1hr
in
rain 24hr
in
rain mn
in
humidity
%
barometer
mb
20260901052224 71 0.0 0.0 0.00 0.00 0.00 10 973.6
20260901051224 71 0.0 0.0 0.00 0.00 0.00 10 973.7
20260901050224 72 0.0 0.0 0.00 0.00 0.00 10 973.7
20260901045224 71 0.0 0.0 0.00 0.00 0.00 10 973.7
20260901044224 69 0.0 0.0 0.00 0.00 0.00 10 973.6
20260901043224 69 0.0 0.0 0.00 0.00 0.00 10 973.5
20260901042224 69 0.0 0.0 0.00 0.00 0.00 10 973.7
20260901041224 68 0.0 0.0 0.00 0.00 0.00 10 973.3
20260901040224 67 0.0 0.0 0.00 0.00 0.00 10 972.8
20260901035224 65 0.0 0.0 0.00 0.00 0.00 10 971.6
20260901034224 64 0.0 0.0 0.00 0.00 0.00 10 971.1
20260901033224 64 0.0 0.0 0.00 0.00 0.00 10 971.2
20260901032224 65 0.0 0.0 0.00 0.00 0.00 10 971.8
20260901031224 65 0.0 0.0 0.00 0.00 0.00 10 971.9
20260901030224 66 0.0 0.0 0.00 0.00 0.00 10 971.9
20260901025224 64 0.0 0.0 0.00 0.00 0.00 10 971.1
20260901024224 64 0.0 0.0 0.00 0.00 0.00 10 971.0
20260901023224 65 0.0 0.0 0.00 0.00 0.00 10 971.2
20260901022225 65 0.0 0.0 0.00 0.00 0.00 10 971.3
20260901021224 65 0.0 0.0 0.00 0.00 0.00 10 971.3
20260901020224 65 0.0 0.0 0.00 0.00 0.00 10 971.7
20260901015224 66 0.0 0.0 0.00 0.00 0.00 10 972.1
20260901014224 65 0.0 0.0 0.00 0.00 0.00 10 971.4
20260901013224 64 0.0 0.0 0.00 0.00 0.00 10 971.2
20260901012224 65 0.0 0.0 0.00 0.00 0.00 10 971.4
20260901011224 64 0.0 0.0 0.00 0.00 0.00 10 970.9
20260901010224 65 0.0 0.0 0.00 0.00 0.00 10 971.1
20260901005224 65 0.0 0.0 0.00 0.00 0.00 10 971.1
20260901004225 63 0.0 0.0 0.00 0.00 0.00 10 970.9
20260901003224 63 0.0 0.0 0.00 0.00 0.00 10 971.0
20260901002224 64 0.0 0.0 0.00 0.00 0.00 10 971.1
20260901001224 65 0.0 0.0 0.00 0.00 0.00 10 971.5
20260901000226 65 0.0 0.0 0.00 0.00 0.00 10 970.9
20260831235224 62 0.0 0.0 0.00 0.00 0.00 10 971.0
20260831234224 61 0.0 0.0 0.00 0.00 0.00 10 971.1
20260831233224 62 0.0 0.0 0.00 0.00 0.00 10 971.2
20260831232224 62 0.0 0.0 0.00 0.00 0.00 10 971.3
20260831231224 60 0.0 0.0 0.00 0.00 0.00 10 971.4
20260831230224 60 0.0 0.0 0.00 0.00 0.00 10 971.6
20260831225224 60 0.0 0.0 0.00 0.00 0.00 10 971.6
20260831224224 60 0.0 0.0 0.00 0.00 0.00 10 971.6
20260831223224 60 0.0 0.0 0.00 0.00 0.00 10 971.7
20260831222224 61 0.0 0.0 0.00 0.00 0.00 10 971.7
20260831221224 61 0.0 0.0 0.00 0.00 0.00 10 971.6
20260831220224 61 0.0 0.0 0.00 0.00 0.00 10 971.8
20260831215224 61 0.0 0.0 0.00 0.00 0.00 10 971.8
20260831214224 62 0.0 0.0 0.00 0.00 0.00 10 971.8
20260831213250 62 0.0 0.0 0.00 0.00 0.00 10 971.9
20260831202224 66 0.0 0.0 0.00 0.00 0.00 10 973.0
20260831201224 66 0.0 0.0 0.00 0.00 0.00 10 973.1
20260831200224 66 0.0 0.0 0.00 0.00 0.00 10 973.2
20260831195224 67 0.0 0.0 0.00 0.00 0.00 10 973.4
20260831194224 67 0.0 0.0 0.00 0.00 0.00 10 973.9
20260831193224 67 0.0 0.0 0.00 0.00 0.00 10 973.7
20260831192224 68 0.0 0.0 0.00 0.00 0.00 10 973.8
20260831191224 68 0.0 0.0 0.00 0.00 0.00 10 973.9
20260831190224 68 0.0 0.0 0.00 0.00 0.00 10 973.8
20260831185224 68 0.0 0.0 0.00 0.00 0.00 10 974.0
20260831184224 69 0.0 0.0 0.00 0.00 0.00 10 974.1
20260831183224 69 0.0 0.0 0.00 0.00 0.00 10 974.2
20260831182224 69 0.0 0.0 0.00 0.00 0.00 10 974.4
20260831181224 70 0.0 0.0 0.00 0.00 0.00 10 974.6
20260831180224 71 0.0 0.0 0.00 0.00 0.00 10 974.6
20260831175224 71 0.0 0.0 0.00 0.00 0.00 10 974.5
20260831174249 71 0.0 0.0 0.00 0.00 0.00 10 974.5
20260831163224 78 0.0 0.0 0.00 0.00 0.00 76 974.2
20260831162224 79 0.0 0.0 0.00 0.00 0.00 70 974.2
20260831161224 80 0.0 0.0 0.00 0.00 0.00 63 974.2
20260831160224 81 0.0 0.0 0.00 0.00 0.00 54 974.1
20260831155224 82 0.0 0.0 0.00 0.00 0.00 53 974.2
20260831154224 83 0.0 0.0 0.00 0.00 0.00 52 974.2
20260831153224 83 0.0 0.0 0.00 0.00 0.00 52 974.1
20260831152224 84 0.0 0.0 0.00 0.00 0.00 55 974.2
20260831151224 85 0.0 0.0 0.00 0.00 0.00 52 974.1
20260831150224 86 0.0 0.0 0.00 0.00 0.00 51 974.1
20260831145224 86 0.0 0.0 0.00 0.00 0.00 51 974.2
20260831144224 86 0.0 0.0 0.00 0.00 0.00 50 974.2
20260831143224 87 0.0 0.0 0.00 0.00 0.00 50 974.3
20260831142224 86 0.0 0.0 0.00 0.00 0.00 50 974.4
20260831141225 86 0.0 0.0 0.00 0.00 0.00 49 974.3
20260831140224 87 0.0 0.0 0.00 0.00 0.00 48 974.4
20260831135224 87 0.0 0.0 0.00 0.00 0.00 47 974.4
20260831134224 87 0.0 0.0 0.00 0.00 0.00 47 974.5
20260831133224 88 0.0 0.0 0.00 0.00 0.00 46 974.4
20260831132224 87 0.0 0.0 0.00 0.00 0.00 46 974.5
20260831131224 87 0.0 0.0 0.00 0.00 0.00 44 974.5
20260831130224 88 0.0 0.0 0.00 0.00 0.00 45 974.5
20260831125224 89 0.0 0.0 0.00 0.00 0.00 44 974.7
20260831124224 88 0.0 0.0 0.00 0.00 0.00 44 974.8
20260831123224 88 0.0 0.0 0.00 0.00 0.00 44 974.8
20260831122224 88 0.0 0.0 0.00 0.00 0.00 44 974.8
20260831121225 89 0.0 0.0 0.00 0.00 0.00 44 974.9
20260831120224 88 0.0 0.0 0.00 0.00 0.00 45 975.1
20260831115224 88 0.0 0.0 0.00 0.00 0.00 46 975.2
20260831114224 88 0.0 0.0 0.00 0.00 0.00 48 975.3
20260831113224 87 0.0 0.0 0.00 0.00 0.00 50 975.3
20260831112224 87 0.0 0.0 0.00 0.00 0.00 58 975.4
20260831111223 86 0.0 0.0 0.00 0.00 0.00 54 975.5
20260831110224 86 0.0 0.0 0.00 0.00 0.00 61 975.6
20260831105224 86 0.0 0.0 0.00 0.00 0.00 63 975.7
20260831104226 85 0.0 0.0 0.00 0.00 0.00 66 975.8
20260831103225 85 0.0 0.0 0.00 0.00 0.00 64 975.7
20260831102223 84 0.0 0.0 0.00 0.00 0.00 75 975.9
20260831101224 84 0.0 0.0 0.00 0.00 0.00 83 975.9
20260831100223 83 0.0 0.0 0.00 0.00 0.00 81 976.0
20260831095227 84 0.0 0.0 0.00 0.00 0.00 87 976.2
20260831094223 84 0.0 0.0 0.00 0.00 0.00 87 976.2
20260831093224 83 0.0 0.0 0.00 0.00 0.00 91 976.3
20260831092224 83 0.0 0.0 0.00 0.00 0.00 90 976.3
20260831091224 80 0.0 0.0 0.00 0.00 0.00 98 976.4
20260831090224 80 0.0 0.0 0.00 0.00 0.00 10 976.5
20260831085224 78 0.0 0.0 0.00 0.00 0.00 10 976.4
20260831084224 78 0.0 0.0 0.00 0.00 0.00 10 976.5
20260831083224 77 0.0 0.0 0.00 0.00 0.00 10 976.6
20260831082224 78 0.0 0.0 0.00 0.00 0.00 10 976.6
20260831081224 78 0.0 0.0 0.00 0.00 0.00 10 976.6
20260831080223 78 0.0 0.0 0.00 0.00 0.00 10 976.7
20260831075223 76 0.0 0.0 0.00 0.00 0.00 10 976.7
20260831074223 76 0.0 0.0 0.00 0.00 0.00 10 976.5
20260831073223 76 0.0 0.0 0.00 0.00 0.00 10 976.6
20260831072224 75 0.0 0.0 0.00 0.00 0.00 10 976.6
20260831071223 75 0.0 0.0 0.00 0.00 0.00 10 976.5
20260831070223 74 0.0 0.0 0.00 0.00 0.00 10 976.5
20260831065225 73 0.0 0.0 0.00 0.00 0.00 10 976.5
20260831064223 73 0.0 0.0 0.00 0.00 0.00 10 976.5
20260831063223 72 0.0 0.0 0.00 0.00 0.00 10 976.5
20260831062223 71 0.0 0.0 0.00 0.00 0.00 10 976.4
20260831061224 71 0.0 0.0 0.00 0.00 0.00 10 976.3
20260831060224 69 0.0 0.0 0.00 0.00 0.00 10 976.4
20260831055223 69 0.0 0.0 0.00 0.00 0.00 10 976.5
20260831054224 69 0.0 0.0 0.00 0.00 0.00 10 976.3
20260831053223 69 0.0 0.0 0.00 0.00 0.00 10 976.4